Location: Brede
(50.9167°N, 0.6000°E)
Time: 03:33:30
(UTC+00:00)

Cosmos 2219 - Pass Details

Date: 08 August 2020
Orbit: 834 x 860 km, 71.1° (Epoch: 27 September)

Event Time Altitude Azimuth Distance (km) Brightness Sun altitude
Exits shadow 02:13:49 27° 234° (SW) 1,567 4.1 -17.2°
Maximum altitude 02:16:52 60° 304° (NW) 955 3.4 -16.9°
Drops below altitude 10° 02:22:26 10° 25° (NNE) 2,456 6.9 -16.5°
Sets 02:24:55 0° 29° (NNE) 3,394 8.1 -16.2°
